Regional Weather Roundup
Issued by NWS

Home | Current Version | Previous Version | Graphics & Text | Print | Product List | Glossary On
Versions: 1 2 3 4 5 6 7 8 9 10 11 12 13 14 15 16 17 18 19 20 21 22 23 24 25 26 27 28 29 30 31 32 33 34 35 36 37 38 39 40 41 42 43 44 45 46 47 48 49 50
000
ASUS43 KOAX 211410
RWRNE

WEATHER ROUNDUP FOR NEBRASKA
NATIONAL WEATHER SERVICE OMAHA NE
800 AM CST SUN DEC 21 2014

NOTES: SATELLITE DATA IS BEING USED TO AUGMENT CLOUD COVER ABOVE
       12000 FEET.
       "FAIR" INDICATES FEW OR NO CLOUDS BELOW 12,000 FEET WITH NO
       SIGNIFICANT WEATHER AND/OR OBSTRUCTIONS TO VISIBILITY.

  * THESE STATIONS DO NOT REPORT WEATHER SUCH AS RAIN...SNOW OR FOG.

NEZ001>004-019>022-054>056-211500-
NEBRASKA PANHANDLE

CITY           SKY/WX    TMP DP  RH WIND       PRES   REMARKS
SCOTTSBLUFF    PTCLDY    21  16  81 E8        29.65F WCI  11
ALLIANCE       CLEAR     25  20  81 SW7       29.65F WCI  17
CHADRON        CLEAR     22  18  85 SE3       29.61F
KIMBALL        PTCLDY    30  21  70 SW7       29.68F WCI  23
SIDNEY         CLEAR     24  18  77 SW15      29.71F WCI  11
$$

NEZ057>060-069>072-079>082-211500-
SOUTHWEST NEBRASKA

CITY           SKY/WX    TMP DP  RH WIND       PRES   REMARKS
NORTH PLATTE   CLEAR     20  18  92 CALM      29.73F FOG
IMPERIAL       CLEAR     24  20  84 CALM      29.73F
LEXINGTON      MOCLDY    28  27  94 N3        29.76F
MCCOOK         CLEAR     27  25  92 S8        29.76F WCI  19
OGALLALA       CLEAR     18  16  95 W6        29.73F WCI   9
$$

NEZ005>010-023>029-035>040-094-211500-
NORTH CENTRAL NEBRASKA

CITY           SKY/WX    TMP DP  RH WIND       PRES   REMARKS
VALENTINE      CLEAR     21  19  92 NW3       29.65F
AINSWORTH      CLEAR     32  25  77 SW14      29.67F WCI  22
BROKEN BOW     PTCLDY    27  24  89 CALM      29.73F
O`NEILL        CLOUDY    28  28  96 S6        29.72F WCI  22
THEDFORD       CLEAR     30  26  84 S5        29.70F WCI  25
$$

NEZ041-046>049-061>064-073>077-083>087-211500-
SOUTH CENTRAL NEBRASKA

CITY           SKY/WX    TMP DP  RH WIND       PRES   REMARKS
GRAND ISLAND   CLOUDY    32  32 100 S12       29.80F FOG     WCI  23
AURORA         CLOUDY    34  34 100 S12       29.82F FOG     WCI  25
HASTINGS       CLOUDY    33  31  92 S6        29.81F FOG     WCI  28
HEBRON         CLOUDY    36  34  94 S14       29.87F FOG     WCI  27
HOLDREGE       CLOUDY    33  31  91 S9        29.78F WCI  26
KEARNEY *      CLOUDY    32  28  86 SE9       29.78F WCI  24
YORK           CLOUDY    36  36 100 S14       29.84S FOG     WCI  27
$$

NEZ011>018-030>034-042>045-211500-
NORTHEAST NEBRASKA

CITY           SKY/WX    TMP DP  RH WIND       PRES   REMARKS
NORFOLK        CLOUDY    32  32 100 S7        29.78F FOG     WCI  26
ALBION         CLOUDY    30  28  94 SE3       29.78F FOG
BLAIR          CLOUDY    39  37  92 S17       29.84F FOG     WCI  29
COLUMBUS *     CLOUDY    36  30  80 S10       29.84F WCI  28
FREMONT        CLOUDY    40  38  93 S9        29.85F WCI  34
TEKAMAH        CLOUDY    39  37  92 S15       29.85F WCI  31
WAYNE          CLOUDY    33  33  99 SW13      29.80F FOG     WCI  24
$$

NEZ050>053-065>068-078-088>093-211500-
SOUTHEAST NEBRASKA

CITY           SKY/WX    TMP DP  RH WIND       PRES   REMARKS
LINCOLN        CLOUDY    39  36  89 S12       29.88F WCI  32
OMAHA EPPLEY   CLOUDY    37  35  92 S20       29.89F FOG     WCI  27
BEATRICE       CLOUDY    38  37  97 S14G22    29.90F FOG     WCI  29
FALLS CITY     CLOUDY    38  34  85 S13       29.96F WCI  30
NEBRASKA CITY  CLOUDY    36  36 100 S12       29.93S FOG     WCI  27
PLATTSMOUTH    CLOUDY    36  35  94 S16       29.89F FOG     WCI  26
$$

NEZ044-045-051>053-067-211500-
OMAHA AREA

CITY           SKY/WX    TMP DP  RH WIND       PRES   REMARKS
OMAHA EPPLEY   CLOUDY    37  35  92 S20       29.89F FOG     WCI  27
BLAIR          CLOUDY    39  37  92 S17       29.84F FOG     WCI  29
FREMONT        CLOUDY    40  38  93 S9        29.85F WCI  34
MILLARD        CLOUDY    39  37  91 S12       29.87F WCI  32
OFFUTT AFB     CLOUDY    37  35  94 SE10      29.89F WCI  30
PLATTSMOUTH    CLOUDY    36  35  94 S16       29.89F FOG     WCI  26
WAHOO          CLOUDY    39  36  87 S13       29.85S WCI  32
$$


USA.gov is the U.S. government's official web portal to all federal, state and local government web resources and services.